Location: Spiekeroog
(53.7670°N, 7.7000°E)
Time: 20:35:53
(UTC+02:00)

ISS - Visible Passes

Search period start: 23 May 2018 00:00
Search period end: 02 June 2018 00:00
Orbit: 402 x 407 km, 51.6° (Epoch: 24 May)

Date Brightness Start Highest point End Pass type
(mag) Time Alt. Az. Time Alt. Az. Time Alt. Az.
23 May -3.9 00:37:10 10° WSW 00:40:23 58° S 00:43:36 10° E visible
23 May -3.6 02:13:31 10° W 02:16:41 45° SSW 02:19:49 10° ESE visible
23 May -2.3 03:50:26 10° WSW 03:52:38 17° SW 03:54:50 10° S visible
23 May -3.7 23:45:04 10° WSW 23:48:16 51° S 23:51:28 10° E visible
24 May -3.8 01:21:21 10° W 01:24:34 54° S 01:27:46 10° ESE visible
24 May -2.6 02:57:58 10° W 03:00:18 23° SW 03:00:18 23° SW visible
24 May -3.4 22:53:02 10° SW 22:56:09 42° SSE 22:59:16 10° E visible
25 May -3.9 00:29:11 10° W 00:32:25 59° S 00:35:39 10° ESE visible
25 May -3.0 02:05:40 10° W 02:08:18 31° SW 02:08:18 31° SW visible
25 May -3.8 23:37:01 10° WSW 23:40:16 59° S 23:43:30 10° E visible
26 May -3.5 01:13:24 10° W 01:16:32 42° SSW 01:17:14 36° SSE visible
26 May -3.7 22:44:53 10° WSW 22:48:06 54° S 22:51:19 10° E visible
27 May -3.7 00:21:11 10° W 00:24:24 51° S 00:26:24 20° ESE visible
27 May -1.9 01:57:53 10° W 01:59:01 16° WSW 01:59:01 16° WSW visible
27 May -3.8 23:28:59 10° W 23:32:13 58° S 23:35:27 10° ESE visible
28 May -2.9 01:05:30 10° W 01:08:17 29° SSW 01:08:17 29° SSW visible
28 May -3.8 22:36:47 10° W 22:40:01 60° S 22:43:16 10° E visible
29 May -3.3 00:13:11 10° W 00:16:16 38° SSW 00:17:36 25° SSE visible
29 May -3.5 23:20:55 10° W 23:24:07 48° SSW 23:26:58 12° ESE visible
30 May -2.1 00:57:44 10° W 00:59:36 18° SW 00:59:36 18° SW visible
31 May -2.6 00:05:14 10° W 00:08:02 26° SSW 00:08:59 22° S visible
31 May -3.0 23:12:51 10° W 23:15:53 35° SSW 23:18:24 13° SE visible
01 Jun -1.3 00:50:44 10° WSW 00:51:01 10° SW 00:51:01 10° SW visible
